| time (UTC) | temp F | wind direction | speed MPH | gust MPH | rain 1hr in | rain 24hr in | rain mn in | humidity % | barometer mb |
| 20260505070224 | 43 | 91 | 0.0 | 0.0 | 0.00 | 0.00 | 0.00 | 94 | 1016.0 |
| 20260505065720 | 43 | 83 | 0.0 | 0.0 | 0.00 | 0.00 | 0.00 | 94 | 1016.5 |
| 20260505065217 | 43 | 83 | 0.0 | 0.0 | 0.00 | 0.00 | 0.00 | 94 | 1016.4 |
| 20260505064714 | 43 | 81 | 0.0 | 0.0 | 0.00 | 0.00 | 0.00 | 94 | 1016.3 |
| 20260505064212 | 43 | 81 | 0.0 | 0.0 | 0.00 | 0.00 | 0.00 | 94 | 1016.3 |
| 20260505063709 | 43 | 75 | 0.0 | 0.0 | 0.00 | 0.00 | 0.00 | 94 | 1016.4 |
| 20260505063205 | 43 | 75 | 0.0 | 0.0 | 0.00 | 0.00 | 0.00 | 94 | 1016.4 |
| 20260505062701 | 43 | 76 | 0.0 | 0.0 | 0.00 | 0.00 | 0.00 | 94 | 1016.3 |
| 20260505062159 | 43 | 66 | 0.0 | 0.0 | 0.00 | 0.00 | 0.00 | 94 | 1016.0 |
| 20260505061656 | 43 | 66 | 0.0 | 0.0 | 0.00 | 0.00 | 0.00 | 94 | 1016.1 |
| 20260505061154 | 43 | 66 | 0.0 | 0.0 | 0.00 | 0.00 | 0.00 | 94 | 1016.3 |
| 20260505060651 | 43 | 64 | 0.0 | 0.0 | 0.00 | 0.00 | 0.00 | 94 | 1016.3 |
| 20260505060148 | 43 | 75 | 0.0 | 0.0 | 0.00 | 0.00 | 0.00 | 95 | 1016.3 |
| 20260505055643 | 43 | 55 | 0.0 | 0.0 | 0.00 | 0.14 | 0.14 | 95 | 1016.5 |
| 20260505055140 | 43 | 26 | 0.0 | 0.0 | 0.07 | 0.14 | 0.14 | 95 | 1016.5 |
| 20260505054637 | 44 | 26 | 0.0 | 0.0 | 0.07 | 0.14 | 0.14 | 95 | 1016.5 |
| 20260505054135 | 44 | 15 | 0.0 | 0.0 | 0.00 | 0.13 | 0.13 | 95 | 1016.4 |
| 20260505053633 | 44 | 14 | 0.0 | 0.0 | 0.05 | 0.13 | 0.13 | 95 | 1016.8 |
| 20260505053129 | 44 | 354 | 0.0 | 0.0 | 0.12 | 0.13 | 0.13 | 94 | 1016.8 |
| 20260505052626 | 44 | 0 | 0.0 | 0.0 | 0.12 | 0.12 | 0.12 | 94 | 1016.6 |
| 20260505052123 | 44 | 339 | 0.0 | 0.0 | 0.05 | 0.11 | 0.11 | 94 | 1016.6 |
| 20260505051620 | 45 | 11 | 0.0 | 0.0 | 0.00 | 0.10 | 0.10 | 93 | 1016.8 |
| 20260505051118 | 45 | 2 | 0.0 | 0.0 | 0.07 | 0.10 | 0.10 | 93 | 1016.9 |
| 20260505050616 | 45 | 5 | 0.0 | 0.0 | 0.07 | 0.10 | 0.10 | 93 | 1016.6 |
| 20260505050114 | 45 | 4 | 0.0 | 0.0 | 0.00 | 0.09 | 0.09 | 92 | 1016.8 |
| 20260505041543 | 46 | 5 | 0.0 | 0.0 | 0.12 | 0.05 | 0.05 | 82 | 1016.6 |
| 20260505041041 | 47 | 357 | 0.0 | 0.0 | 0.12 | 0.04 | 0.04 | 80 | 1016.8 |
| 20260505040538 | 48 | 14 | 0.0 | 0.0 | 0.12 | 0.03 | 0.03 | 76 | 1016.4 |
| 20260505040035 | 48 | 309 | 0.0 | 0.0 | 0.07 | 0.02 | 0.02 | 74 | 1016.4 |
| 20260505035531 | 49 | 303 | 0.0 | 0.0 | 0.00 | 0.01 | 0.01 | 69 | 1016.4 |
| 20260505035028 | 49 | 8 | 0.0 | 0.0 | 0.00 | 0.01 | 0.01 | 66 | 1016.3 |
| 20260505034524 | 49 | 356 | 0.0 | 0.0 | 0.00 | 0.01 | 0.01 | 62 | 1016.0 |
| 20260505034021 | 50 | 335 | 0.0 | 0.0 | 0.00 | 0.01 | 0.01 | 61 | 1016.1 |
| 20260505033518 | 50 | 24 | 0.0 | 0.0 | 0.00 | 0.01 | 0.01 | 61 | 1015.9 |
| 20260505033017 | 50 | 359 | 0.0 | 0.0 | 0.00 | 0.01 | 0.01 | 60 | 1015.9 |
| 20260505032514 | 50 | 23 | 0.0 | 0.0 | 0.00 | 0.01 | 0.01 | 60 | 1015.5 |
| 20260505032010 | 50 | 11 | 0.0 | 0.0 | 0.00 | 0.01 | 0.01 | 59 | 1015.8 |
| 20260505031508 | 50 | 12 | 0.0 | 0.0 | 0.00 | 0.01 | 0.01 | 59 | 1016.0 |
| 20260505031004 | 50 | 45 | 0.0 | 0.0 | 0.00 | 0.01 | 0.01 | 59 | 1015.8 |
| 20260505030501 | 50 | 8 | 0.0 | 0.0 | 0.00 | 0.01 | 0.01 | 58 | 1015.5 |
| 20260505025955 | 50 | 31 | 0.0 | 0.0 | 0.00 | 0.01 | 0.01 | 59 | 1015.7 |
| 20260505025453 | 50 | 347 | 0.0 | 0.0 | 0.00 | 0.01 | 0.01 | 59 | 1015.4 |
| 20260505024952 | 50 | 16 | 0.0 | 0.0 | 0.00 | 0.01 | 0.01 | 59 | 1015.3 |
| 20260505024448 | 50 | 348 | 0.0 | 0.0 | 0.00 | 0.01 | 0.01 | 59 | 1015.4 |
| 20260505023946 | 50 | 0 | 0.0 | 0.0 | 0.00 | 0.01 | 0.01 | 60 | 1015.3 |
| 20260505023443 | 49 | 10 | 0.0 | 0.0 | 0.00 | 0.01 | 0.01 | 61 | 1015.3 |
| 20260505022940 | 49 | 21 | 0.0 | 0.0 | 0.00 | 0.01 | 0.01 | 62 | 1015.2 |
| 20260505022438 | 49 | 34 | 0.0 | 0.0 | 0.00 | 0.01 | 0.01 | 62 | 1015.4 |
| 20260505021935 | 49 | 355 | 0.0 | 0.0 | 0.00 | 0.01 | 0.01 | 62 | 1015.2 |
| 20260505021431 | 49 | 353 | 0.0 | 0.0 | 0.00 | 0.01 | 0.01 | 62 | 1014.9 |
| 20260505020927 | 49 | 10 | 1.0 | 3.0 | 0.00 | 0.01 | 0.01 | 62 | 1015.2 |
| 20260505020422 | 50 | 35 | 0.0 | 1.0 | 0.00 | 0.01 | 0.01 | 62 | 1015.5 |
| 20260505015919 | 50 | 312 | 0.0 | 1.0 | 0.00 | 0.01 | 0.01 | 60 | 1015.5 |
| 20260505015416 | 51 | 27 | 0.0 | 1.0 | 0.00 | 0.01 | 0.01 | 59 | 1015.2 |
| 20260505014914 | 52 | 10 | 0.0 | 0.0 | 0.00 | 0.01 | 0.01 | 57 | 1015.2 |
| 20260505014410 | 52 | 359 | 0.0 | 0.0 | 0.00 | 0.01 | 0.01 | 54 | 1014.9 |
| 20260505013907 | 53 | 353 | 0.0 | 1.0 | 0.00 | 0.01 | 0.01 | 51 | 1014.9 |
| 20260505013404 | 54 | 0 | 0.0 | 0.0 | 0.00 | 0.01 | 0.01 | 47 | 1014.9 |
| 20260505012902 | 54 | 346 | 0.0 | 2.0 | 0.00 | 0.01 | 0.01 | 46 | 1014.9 |
| 20260505012400 | 54 | 350 | 3.0 | 7.0 | 0.00 | 0.01 | 0.01 | 45 | 1015.1 |
| 20260505011856 | 54 | 355 | 0.0 | 0.0 | 0.00 | 0.01 | 0.01 | 45 | 1015.1 |
| 20260505011353 | 54 | 234 | 0.0 | 0.0 | 0.00 | 0.01 | 0.01 | 45 | 1014.8 |
| 20260505010849 | 55 | 336 | 0.0 | 0.0 | 0.00 | 0.01 | 0.01 | 45 | 1014.7 |
| 20260505010345 | 55 | 352 | 0.0 | 0.0 | 0.00 | 0.01 | 0.01 | 44 | 1014.6 |
| 20260505005841 | 55 | 12 | 0.0 | 0.0 | 0.00 | 0.01 | 0.01 | 43 | 1014.4 |
| 20260505005338 | 55 | 341 | 0.0 | 0.0 | 0.00 | 0.01 | 0.01 | 43 | 1014.6 |
| 20260505004836 | 56 | 11 | 0.0 | 0.0 | 0.00 | 0.01 | 0.01 | 41 | 1014.3 |
| 20260505004332 | 57 | 308 | 0.0 | 0.0 | 0.00 | 0.01 | 0.01 | 39 | 1014.3 |
| 20260505003830 | 57 | 32 | 0.0 | 1.0 | 0.00 | 0.01 | 0.01 | 37 | 1014.3 |
| 20260505003326 | 57 | 339 | 0.0 | 0.0 | 0.00 | 0.01 | 0.01 | 37 | 1014.1 |
| 20260505002822 | 57 | 341 | 0.0 | 0.0 | 0.00 | 0.01 | 0.01 | 37 | 1014.2 |
| 20260505002319 | 57 | 17 | 0.0 | 1.0 | 0.00 | 0.01 | 0.01 | 36 | 1014.2 |
| 20260505001818 | 58 | 8 | 1.0 | 5.0 | 0.00 | 0.01 | 0.01 | 35 | 1014.1 |
| 20260505001314 | 58 | 11 | 0.0 | 0.0 | 0.00 | 0.01 | 0.01 | 35 | 1014.0 |
| 20260505000812 | 58 | 330 | 2.0 | 5.0 | 0.00 | 0.01 | 0.01 | 35 | 1014.0 |
| 20260505000310 | 58 | 67 | 0.0 | 0.0 | 0.00 | 0.01 | 0.01 | 36 | 1014.1 |
| 20260504235806 | 58 | 77 | 0.0 | 0.0 | 0.00 | 0.01 | 0.01 | 35 | 1014.3 |
| 20260504235304 | 58 | 21 | 0.0 | 0.0 | 0.00 | 0.01 | 0.01 | 36 | 1014.2 |
| 20260504234759 | 57 | 316 | 0.0 | 0.0 | 0.00 | 0.01 | 0.01 | 37 | 1014.3 |
| 20260504234257 | 57 | 12 | 0.0 | 1.0 | 0.00 | 0.01 | 0.01 | 37 | 1014.3 |
| 20260504233753 | 57 | 344 | 0.0 | 0.0 | 0.00 | 0.01 | 0.01 | 40 | 1014.3 |
| 20260504233249 | 58 | 37 | 0.0 | 0.0 | 0.00 | 0.01 | 0.01 | 40 | 1014.3 |
| 20260504232746 | 58 | 27 | 0.0 | 0.0 | 0.00 | 0.01 | 0.01 | 35 | 1014.0 |
| 20260504232243 | 58 | 39 | 0.0 | 0.0 | 0.00 | 0.01 | 0.01 | 34 | 1014.2 |
| 20260504231740 | 59 | 10 | 2.0 | 5.0 | 0.00 | 0.01 | 0.01 | 34 | 1013.8 |
| 20260504231236 | 59 | 25 | 4.0 | 7.0 | 0.00 | 0.01 | 0.01 | 34 | 1013.5 |
| 20260504230732 | 59 | 347 | 6.0 | 10.0 | 0.00 | 0.01 | 0.01 | 34 | 1013.2 |
| 20260504230231 | 59 | 327 | 4.0 | 15.0 | 0.00 | 0.01 | 0.01 | 34 | 1013.2 |
| 20260504225730 | 59 | 4 | 3.0 | 9.0 | 0.00 | 0.01 | 0.01 | 34 | 1013.1 |
| 20260504225225 | 59 | 346 | 3.0 | 6.0 | 0.00 | 0.01 | 0.01 | 34 | 1013.0 |
| 20260504224723 | 60 | 60 | 2.0 | 8.0 | 0.00 | 0.01 | 0.01 | 33 | 1013.1 |
| 20260504224220 | 61 | 36 | 2.0 | 7.0 | 0.00 | 0.01 | 0.01 | 31 | 1012.9 |
| 20260504223716 | 63 | 61 | 3.0 | 6.0 | 0.00 | 0.01 | 0.01 | 28 | 1012.9 |
| 20260504223211 | 64 | 30 | 3.0 | 9.0 | 0.00 | 0.01 | 0.01 | 25 | 1012.9 |
| 20260504222709 | 64 | 36 | 0.0 | 0.0 | 0.00 | 0.01 | 0.01 | 24 | 1013.0 |
| 20260504222205 | 63 | 333 | 4.0 | 7.0 | 0.00 | 0.01 | 0.01 | 24 | 1012.7 |
| 20260504221703 | 64 | 6 | 0.0 | 0.0 | 0.00 | 0.01 | 0.01 | 25 | 1012.7 |
| 20260504221200 | 63 | 78 | 0.0 | 2.0 | 0.00 | 0.01 | 0.01 | 25 | 1012.7 |
| 20260504220656 | 64 | 43 | 0.0 | 0.0 | 0.00 | 0.01 | 0.01 | 25 | 1012.7 |
| 20260504220154 | 64 | 18 | 2.0 | 5.0 | 0.00 | 0.01 | 0.01 | 24 | 1012.5 |
| 20260504215650 | 64 | 43 | 0.0 | 0.0 | 0.00 | 0.01 | 0.01 | 24 | 1012.6 |
| 20260504215148 | 65 | 17 | 0.0 | 0.0 | 0.00 | 0.01 | 0.01 | 23 | 1012.6 |
| 20260504214643 | 65 | 11 | 0.0 | 1.0 | 0.00 | 0.01 | 0.01 | 24 | 1012.6 |
| 20260504214140 | 65 | 349 | 0.0 | 0.0 | 0.00 | 0.01 | 0.01 | 24 | 1012.7 |
| 20260504213636 | 66 | 256 | 0.0 | 0.0 | 0.00 | 0.01 | 0.01 | 23 | 1012.7 |
| 20260504213133 | 67 | 20 | 0.0 | 0.0 | 0.00 | 0.01 | 0.01 | 22 | 1012.7 |
| 20260504212630 | 68 | 9 | 0.0 | 0.0 | 0.00 | 0.01 | 0.01 | 23 | 1012.9 |
| 20260504212126 | 67 | 6 | 0.0 | 0.0 | 0.00 | 0.01 | 0.01 | 22 | 1012.6 |
| 20260504211624 | 66 | 13 | 0.0 | 0.0 | 0.00 | 0.01 | 0.01 | 22 | 1012.9 |
| 20260504211120 | 67 | 287 | 0.0 | 0.0 | 0.00 | 0.01 | 0.01 | 23 | 1013.1 |
| 20260504210619 | 68 | 10 | 0.0 | 0.0 | 0.00 | 0.01 | 0.01 | 21 | 1013.0 |
| 20260504210114 | 68 | 62 | 0.0 | 0.0 | 0.00 | 0.01 | 0.01 | 21 | 1013.0 |
| 20260504205612 | 68 | 306 | 0.0 | 0.0 | 0.00 | 0.01 | 0.01 | 21 | 1012.9 |
| 20260504205110 | 69 | 62 | 0.0 | 0.0 | 0.00 | 0.01 | 0.01 | 21 | 1013.1 |
| 20260504204608 | 68 | 64 | 0.0 | 0.0 | 0.00 | 0.01 | 0.01 | 23 | 1013.1 |
| 20260504204106 | 67 | 48 | 0.0 | 0.0 | 0.00 | 0.01 | 0.01 | 24 | 1013.1 |
| 20260504203604 | 67 | 48 | 0.0 | 1.0 | 0.00 | 0.01 | 0.01 | 23 | 1013.3 |
| 20260504203102 | 67 | 43 | 0.0 | 0.0 | 0.00 | 0.01 | 0.01 | 23 | 1013.3 |
| 20260504202556 | 68 | 25 | 0.0 | 0.0 | 0.00 | 0.01 | 0.01 | 25 | 1013.7 |
| 20260504202054 | 67 | 221 | 0.0 | 0.0 | 0.00 | 0.01 | 0.01 | 24 | 1013.7 |
| 20260504201550 | 67 | 35 | 0.0 | 0.0 | 0.00 | 0.01 | 0.01 | 25 | 1013.5 |
| 20260504201049 | 66 | 77 | 0.0 | 0.0 | 0.00 | 0.01 | 0.01 | 25 | 1013.5 |
| 20260504200544 | 66 | 53 | 2.0 | 8.0 | 0.00 | 0.01 | 0.01 | 26 | 1013.6 |
| 20260504200042 | 64 | 68 | 0.0 | 0.0 | 0.00 | 0.01 | 0.01 | 27 | 1013.6 |
| 20260504195537 | 63 | 342 | 3.0 | 7.0 | 0.00 | 0.01 | 0.01 | 27 | 1013.6 |
| 20260504195034 | 64 | 334 | 5.0 | 10.0 | 0.00 | 0.01 | 0.01 | 28 | 1013.2 |
| 20260504194531 | 64 | 356 | 3.0 | 7.0 | 0.00 | 0.01 | 0.01 | 29 | 1013.2 |
| 20260504194026 | 63 | 356 | 2.0 | 5.0 | 0.00 | 0.01 | 0.01 | 30 | 1013.1 |
| 20260504193523 | 62 | 2 | 0.0 | 0.0 | 0.00 | 0.01 | 0.01 | 34 | 1013.0 |
| 20260504193022 | 61 | 336 | 0.0 | 1.0 | 0.07 | 0.01 | 0.01 | 36 | 1013.2 |
| 20260504192520 | 61 | 46 | 0.0 | 1.0 | 0.07 | 0.01 | 0.01 | 35 | 1013.6 |
| 20260504192018 | 60 | 293 | 1.0 | 2.0 | 0.00 | 0.00 | 0.00 | 38 | 1013.5 |
| 20260504191515 | 62 | 350 | 0.0 | 1.0 | 0.00 | 0.00 | 0.00 | 42 | 1013.6 |
| 20260504191011 | 64 | 354 | 2.0 | 6.0 | 0.00 | 0.00 | 0.00 | 27 | 1013.2 |
| 20260504190507 | 66 | 348 | 3.0 | 7.0 | 0.00 | 0.00 | 0.00 | 22 | 1013.3 |
| 20260504190003 | 66 | 4 | 0.0 | 1.0 | 0.00 | 0.00 | 0.00 | 20 | 1013.2 |
| 20260504185501 | 67 | 3 | 0.0 | 0.0 | 0.00 | 0.00 | 0.00 | 20 | 1013.5 |
| 20260504184957 | 68 | 17 | 0.0 | 0.0 | 0.00 | 0.00 | 0.00 | 20 | 1013.5 |
| 20260504184453 | 69 | 5 | 0.0 | 0.0 | 0.00 | 0.00 | 0.00 | 19 | 1013.2 |
| 20260504183948 | 70 | 36 | 0.0 | 0.0 | 0.00 | 0.00 | 0.00 | 18 | 1013.2 |
| 20260504183446 | 69 | 79 | 0.0 | 0.0 | 0.00 | 0.00 | 0.00 | 20 | 1013.3 |
| 20260504182944 | 69 | 80 | 0.0 | 0.0 | 0.00 | 0.00 | 0.00 | 19 | 1013.3 |
| 20260504182440 | 70 | 187 | 0.0 | 0.0 | 0.00 | 0.00 | 0.00 | 18 | 1013.6 |
| 20260504181938 | 68 | 3 | 0.0 | 0.0 | 0.00 | 0.00 | 0.00 | 20 | 1013.6 |
| 20260504181435 | 67 | 278 | 0.0 | 0.0 | 0.00 | 0.00 | 0.00 | 21 | 1013.6 |
| 20260504180933 | 68 | 23 | 0.0 | 0.0 | 0.00 | 0.00 | 0.00 | 20 | 1013.8 |
| 20260504180432 | 68 | 183 | 0.0 | 0.0 | 0.00 | 0.00 | 0.00 | 19 | 1013.8 |
| 20260504175930 | 69 | 26 | 0.0 | 0.0 | 0.00 | 0.00 | 0.00 | 19 | 1013.8 |
| 20260504175426 | 69 | 200 | 0.0 | 0.0 | 0.00 | 0.00 | 0.00 | 20 | 1014.1 |
| 20260504174924 | 69 | 270 | 0.0 | 0.0 | 0.00 | 0.00 | 0.00 | 19 | 1014.1 |
| 20260504174422 | 69 | 13 | 0.0 | 0.0 | 0.00 | 0.00 | 0.00 | 20 | 1014.3 |
| 20260504173919 | 69 | 22 | 0.0 | 0.0 | 0.00 | 0.00 | 0.00 | 20 | 1014.3 |
| 20260504173415 | 68 | 78 | 0.0 | 0.0 | 0.00 | 0.00 | 0.00 | 21 | 1014.4 |
| 20260504172913 | 68 | 17 | 0.0 | 0.0 | 0.00 | 0.00 | 0.00 | 20 | 1014.4 |
| 20260504172408 | 67 | 0 | 0.0 | 0.0 | 0.00 | 0.00 | 0.00 | 21 | 1014.7 |
| 20260504171905 | 66 | 336 | 0.0 | 0.0 | 0.00 | 0.00 | 0.00 | 21 | 1014.6 |
| 20260504171402 | 67 | 176 | 0.0 | 1.0 | 0.00 | 0.00 | 0.00 | 21 | 1014.6 |
| 20260504170859 | 66 | 327 | 0.0 | 0.0 | 0.00 | 0.00 | 0.00 | 21 | 1014.6 |
| 20260504170355 | 66 | 44 | 0.0 | 1.0 | 0.00 | 0.00 | 0.00 | 21 | 1014.6 |
| 20260504160314 | 65 | 12 | 1.0 | 2.0 | 0.00 | 0.00 | 0.00 | 23 | 1015.1 |
| 20260504150739 | 60 | 249 | 1.0 | 2.0 | 0.00 | 0.00 | 0.00 | 26 | 1015.4 |
| 20260504150236 | 60 | 352 | 0.0 | 1.0 | 0.00 | 0.00 | 0.00 | 25 | 1015.3 |
| 20260504141205 | 57 | 306 | 0.0 | 0.0 | 0.00 | 0.00 | 0.00 | 30 | 1015.2 |
| 20260504140702 | 57 | 338 | 0.0 | 0.0 | 0.00 | 0.00 | 0.00 | 31 | 1015.1 |
| 20260504140158 | 56 | 336 | 0.0 | 0.0 | 0.00 | 0.00 | 0.00 | 32 | 1015.2 |
| 20260504130626 | 51 | 66 | 0.0 | 0.0 | 0.00 | 0.00 | 0.00 | 36 | 1015.2 |
| 20260504130123 | 51 | 20 | 0.0 | 0.0 | 0.00 | 0.00 | 0.00 | 36 | 1015.1 |
| 20260504110514 | 49 | 110 | 0.0 | 0.0 | 0.00 | 0.00 | 0.00 | 38 | 1014.9 |
| 20260504100436 | 49 | 323 | 0.0 | 0.0 | 0.00 | 0.00 | 0.00 | 38 | 1015.3 |
| 20260504081829 | 50 | 353 | 0.0 | 0.0 | 0.00 | 0.00 | 0.00 | 41 | 1016.0 |
| 20260504081326 | 50 | 330 | 0.0 | 0.0 | 0.00 | 0.00 | 0.00 | 39 | 1016.0 |
| 20260504080822 | 49 | 329 | 0.0 | 0.0 | 0.00 | 0.00 | 0.00 | 40 | 1016.1 |
| 20260504080319 | 49 | 352 | 0.0 | 0.0 | 0.00 | 0.00 | 0.00 | 41 | 1015.9 |